Location: Esp�n
(42.4593°N, 0.2047°W)
Time: 00:52:12
(UTC+00:00)

Cosmos 2151 - Pass Details

Date: 07 June 2020
Orbit: 580 x 602 km, 82.5° (Epoch: 15 July)

Event Time Altitude Azimuth Distance (km) Brightness Sun altitude
Exits shadow 03:17:07 14° 210° (SSW) 1,710 4.7 -10.5°
Maximum altitude 03:20:39 46° 282° (WNW) 806 3.4 -10.0°
Drops below altitude 10° 03:24:49 10° 356° (N) 1,953 6.2 -9.4°
Sets 03:27:07 0° 3° (N) 2,862 7.2 -9.1°
